SV1TGC Weather Reports


Display with metric or nautical units.
time (UTC)temp
F
wind
direction
speed
MPH
gust
MPH
rain 1hr
in
rain 24hr
in
rain mn
in
humidity
%
barometer
mb
20260504081600 60 351 1.0 15.0 0.00 0.07 0.00 45 1019.7
20260504081033 60 351 4.0 15.0 0.00 0.07 0.00 46 1019.6
20260504080534 60 352 7.0 15.0 0.00 0.07 0.00 46 1019.6
20260504050534 51 0 0.0 2.0 0.00 0.07 0.00 69 1018.8
20260504045534 50 350 0.0 2.0 0.00 0.07 0.00 70 1018.7
20260504045033 49 0 0.0 2.0 0.00 0.07 0.00 70 1018.6
20260504044550 49 0 1.0 2.0 0.00 0.07 0.00 70 1018.6
20260504044033 49 346 0.0 3.0 0.00 0.07 0.00 71 1018.5
20260504043534 48 0 1.0 3.0 0.00 0.07 0.00 71 1018.5
20260504043108 48 0 1.0 4.0 0.00 0.07 0.00 73 1018.4
20260504042534 47 345 1.0 4.0 0.00 0.07 0.00 73 1018.5
20260504042035 47 345 2.0 4.0 0.00 0.07 0.00 73 1018.4
20260504041554 46 345 0.0 4.0 0.00 0.07 0.00 73 1018.4
20260504041034 46 344 3.0 4.0 0.00 0.07 0.00 73 1018.5
20260504040534 46 345 1.0 3.0 0.00 0.07 0.00 72 1018.4
20260504040054 46 0 0.0 4.0 0.00 0.07 0.00 72 1018.5
20260504035534 46 345 2.0 4.0 0.00 0.07 0.00 72 1018.4
20260504035034 46 345 1.0 4.0 0.00 0.07 0.00 72 1018.4
20260504034552 46 344 0.0 4.0 0.00 0.07 0.00 71 1018.3
20260504034034 46 344 2.0 4.0 0.00 0.07 0.00 71 1018.3
20260504033534 46 345 1.0 3.0 0.00 0.07 0.00 70 1018.3
20260504033052 46 0 0.0 1.0 0.00 0.07 0.00 70 1018.4
20260504032534 46 0 0.0 3.0 0.00 0.07 0.00 69 1018.4
20260504032034 46 0 0.0 3.0 0.00 0.07 0.00 69 1018.4
20260504031552 46 312 0.0 2.0 0.00 0.07 0.00 69 1018.3
20260504031033 46 0 0.0 2.0 0.00 0.07 0.00 69 1018.2
20260504030533 46 0 0.0 3.0 0.00 0.07 0.00 69 1018.2
20260504025533 47 0 0.0 2.0 0.00 0.07 0.00 68 1018.3
20260504025039 47 313 0.0 2.0 0.00 0.07 0.00 67 1018.3
20260504024553 47 0 0.0 2.0 0.00 0.07 0.00 66 1018.3
20260504024034 47 0 1.0 2.0 0.00 0.07 0.00 66 1018.3
20260504023534 48 312 0.0 3.0 0.00 0.07 0.00 65 1018.3
20260504023049 48 0 0.0 3.0 0.00 0.07 0.00 64 1018.2
20260504022536 48 312 0.0 2.0 0.00 0.07 0.00 64 1018.2
20260504022035 49 0 0.0 4.0 0.00 0.07 0.00 63 1018.3
20260504021549 49 313 0.0 6.0 0.00 0.07 0.00 63 1018.3
20260504021033 49 299 3.0 9.0 0.00 0.07 0.00 63 1018.2
20260504020535 49 327 3.0 9.0 0.00 0.07 0.00 64 1018.3
20260504020052 48 289 3.0 8.0 0.00 0.07 0.00 65 1018.3
20260504015534 48 287 2.0 7.0 0.00 0.07 0.00 66 1018.3
20260504015034 47 340 3.0 7.0 0.00 0.07 0.00 66 1018.3
20260504014546 47 324 1.0 3.0 0.00 0.07 0.00 66 1018.4
20260504014033 47 344 0.0 1.0 0.00 0.07 0.00 66 1018.3
20260504013535 47 0 0.0 1.0 0.00 0.07 0.00 65 1018.4
20260504013051 48 0 0.0 0.0 0.00 0.07 0.00 64 1018.3
20260504012533 48 0 0.0 0.0 0.00 0.07 0.00 63 1018.3
20260504012033 48 0 0.0 1.0 0.00 0.07 0.00 62 1018.2
20260504011552 49 0 0.0 1.0 0.00 0.07 0.00 62 1018.2
20260504011037 49 0 0.0 1.0 0.00 0.07 0.00 61 1018.2
20260504010533 49 0 0.0 3.0 0.00 0.07 0.00 61 1018.3
20260504010056 50 0 0.0 4.0 0.00 0.07 0.00 60 1018.3
20260504005534 50 327 0.0 4.0 0.00 0.07 0.00 60 1018.4
20260504005034 50 345 2.0 4.0 0.00 0.07 0.00 60 1018.4
20260504004549 50 13 1.0 4.0 0.00 0.07 0.00 59 1018.4
20260504004034 50 13 1.0 4.0 0.00 0.07 0.00 58 1018.4
20260504003534 50 0 1.0 4.0 0.00 0.07 0.00 58 1018.3
20260504003051 51 352 0.0 4.0 0.00 0.07 0.00 57 1018.3
20260504002534 51 352 1.0 4.0 0.00 0.07 0.00 57 1018.3
20260504002034 51 355 0.0 4.0 0.00 0.07 0.00 56 1018.3
20260504001555 51 355 1.0 9.0 0.00 0.07 0.00 56 1018.3
20260504001033 51 352 4.0 9.0 0.00 0.07 0.00 57 1018.2
20260504000534 51 352 2.0 8.0 0.00 0.07 0.00 59 1018.3
20260504000059 50 352 1.0 5.0 0.00 0.07 0.00 60 1018.3
20260503235534 50 0 0.0 2.0 0.00 0.07 0.00 60 1018.3
20260503235034 50 0 0.0 3.0 0.00 0.07 0.00 59 1018.3
20260503234544 51 351 0.0 3.0 0.00 0.07 0.00 59 1018.3
20260503234036 51 351 0.0 4.0 0.00 0.07 0.00 59 1018.3
20260503233533 51 0 0.0 4.0 0.00 0.07 0.00 59 1018.3
20260503233051 51 0 0.0 4.0 0.00 0.07 0.00 58 1018.3
20260503232537 51 0 1.0 4.0 0.00 0.07 0.00 58 1018.3
20260503232033 51 352 1.0 9.0 0.00 0.07 0.00 58 1018.3
20260503231548 51 0 0.0 9.0 0.00 0.07 0.00 58 1018.4
20260503231055 51 352 3.0 9.0 0.00 0.07 0.00 58 1018.4
20260503230536 51 352 0.0 3.0 0.00 0.07 0.00 58 1018.4
20260503230108 51 0 0.0 4.0 0.00 0.07 0.00 57 1018.4
20260503225533 51 0 0.0 4.0 0.00 0.07 0.00 57 1018.4
20260503225033 52 0 1.0 8.0 0.00 0.07 0.00 56 1018.4
20260503224548 52 352 0.0 8.0 0.00 0.07 0.00 55 1018.4
20260503224034 52 0 2.0 12.0 0.00 0.07 0.00 55 1018.3
20260503223533 53 352 0.0 12.0 0.00 0.07 0.00 54 1018.4
20260503223101 53 352 1.0 8.0 0.00 0.07 0.00 54 1018.3
20260503222533 53 0 2.0 14.0 0.00 0.07 0.00 54 1018.3
20260503222034 53 351 2.0 14.0 0.00 0.07 0.00 54 1018.2
20260503221549 53 351 5.0 14.0 0.00 0.07 0.00 54 1018.3
20260503221035 53 352 4.0 11.0 0.00 0.07 0.00 54 1018.2
20260503220534 53 352 4.0 11.0 0.00 0.07 0.00 55 1018.3
20260503220053 53 352 4.0 11.0 0.00 0.07 0.00 54 1018.3
20260503215533 53 352 2.0 10.0 0.00 0.07 0.00 54 1018.3
20260503215033 53 352 3.0 10.0 0.00 0.07 0.00 54 1018.4
20260503214555 53 352 3.0 10.0 0.00 0.07 0.00 54 1018.4
20260503214033 53 352 3.0 12.0 0.00 0.07 0.00 54 1018.4
20260503213533 53 352 5.0 12.0 0.00 0.07 0.00 54 1018.4
20260503213049 53 352 5.0 11.0 0.00 0.07 0.00 54 1018.4
20260503212534 53 352 4.0 14.0 0.00 0.07 0.00 54 1018.4
20260503212032 53 352 6.0 14.0 0.00 0.07 0.00 54 1018.3
20260503211547 53 352 6.0 14.0 0.00 0.07 0.00 55 1018.3
20260503211034 53 352 3.0 15.0 0.00 0.07 0.00 55 1018.3
20260503210534 53 352 4.0 15.0 0.00 0.07 0.00 55 1018.3
20260503210047 53 352 8.0 15.0 0.00 0.07 0.00 55 1018.4
20260503205533 53 352 7.0 15.0 0.00 0.07 0.07 55 1018.4
20260503205033 53 352 5.0 11.0 0.00 0.07 0.07 55 1018.3
20260503204546 53 352 5.0 11.0 0.00 0.07 0.07 55 1018.3
20260503204034 53 352 4.0 11.0 0.00 0.07 0.07 55 1018.3
20260503203534 53 352 5.0 12.0 0.00 0.07 0.07 55 1018.4
20260503203051 53 351 4.0 14.0 0.00 0.07 0.07 55 1018.4
20260503202534 53 352 6.0 14.0 0.00 0.07 0.07 55 1018.6
20260503202036 53 352 5.0 14.0 0.00 0.07 0.07 55 1018.5
20260503201551 53 351 7.0 14.0 0.00 0.07 0.07 55 1018.5
20260503201033 53 352 5.0 14.0 0.00 0.07 0.07 54 1018.6
20260503200534 53 351 5.0 14.0 0.00 0.07 0.07 54 1018.5
20260503200052 53 352 6.0 14.0 0.00 0.07 0.07 54 1018.4
20260503195536 54 352 6.0 12.0 0.00 0.07 0.07 53 1018.4
20260503195035 54 352 6.0 12.0 0.00 0.07 0.07 53 1018.4
20260503194558 54 337 6.0 14.0 0.00 0.07 0.07 53 1018.5
20260503194035 54 352 7.0 14.0 0.00 0.07 0.07 53 1018.4
20260503193533 54 352 6.0 15.0 0.00 0.07 0.07 53 1018.4
20260503193050 54 352 4.0 18.0 0.00 0.07 0.07 53 1018.4
20260503192533 54 352 7.0 18.0 0.00 0.07 0.07 53 1018.4
20260503192034 54 352 5.0 15.0 0.00 0.07 0.07 53 1018.4
20260503191546 54 352 3.0 15.0 0.00 0.07 0.07 53 1018.4
20260503191035 54 352 4.0 14.0 0.00 0.07 0.07 53 1018.4
20260503190538 54 352 7.0 15.0 0.00 0.07 0.07 53 1018.3
20260503190051 54 352 5.0 15.0 0.00 0.07 0.07 53 1018.3
20260503185534 54 352 5.0 13.0 0.00 0.07 0.07 53 1018.3
20260503185035 54 352 3.0 14.0 0.00 0.07 0.07 53 1018.3
20260503184550 54 352 5.0 14.0 0.00 0.07 0.07 53 1018.1
20260503184035 54 352 6.0 14.0 0.00 0.07 0.07 53 1018.2
20260503183535 54 352 5.0 12.0 0.00 0.07 0.07 53 1018.1
20260503183055 54 352 7.0 16.0 0.00 0.07 0.07 53 1018.0
20260503182534 54 352 4.0 16.0 0.00 0.07 0.07 52 1017.9
20260503182035 54 352 5.0 11.0 0.00 0.07 0.07 51 1017.9
20260503181559 54 351 4.0 13.0 0.00 0.07 0.07 51 1017.7
20260503181038 54 352 6.0 13.0 0.00 0.07 0.07 51 1017.7
20260503180536 54 352 5.0 15.0 0.00 0.07 0.07 50 1017.6
20260503180051 55 352 5.0 15.0 0.00 0.07 0.07 49 1017.7
20260503175536 54 352 5.0 13.0 0.00 0.07 0.07 49 1017.5
20260503175036 55 355 6.0 13.0 0.00 0.07 0.07 50 1017.4
20260503174558 55 352 4.0 13.0 0.00 0.07 0.07 49 1017.4
20260503174035 55 352 3.0 13.0 0.00 0.07 0.07 49 1017.4
20260503173535 55 352 5.0 14.0 0.00 0.07 0.07 49 1017.4
20260503173058 55 352 3.0 15.0 0.00 0.07 0.07 49 1017.4
20260503172536 55 352 7.0 15.0 0.00 0.07 0.07 48 1017.5
20260503172034 55 352 4.0 11.0 0.00 0.07 0.07 48 1017.4
20260503171555 55 352 6.0 11.0 0.00 0.07 0.07 48 1017.3
20260503171034 55 352 5.0 14.0 0.00 0.07 0.07 47 1017.3
20260503170535 56 352 6.0 14.0 0.00 0.07 0.07 47 1017.2
20260503150533 60 101 8.0 21.0 0.00 0.07 0.07 42 1016.1